Time,TemperatureF,DewpointF,PressureIn,WindDirection,WindDirectionDegrees,WindSpeedMPH,WindSpeedGustMPH,Humidity,HourlyPrecipIn,Conditions,Clouds,dailyrainin,SoftwareType,DateUTC
2013-03-07 00:00:00,27.5,25.0,30.27,West,271,3.0,12.0,90,0.00,,,0.00,meteohub,2013-03-07 05:00:00,
2013-03-07 00:01:00,27.5,25.0,30.27,North,356,6.0,12.0,90,0.00,,,0.00,meteohub,2013-03-07 05:01:00,
2013-03-07 00:06:00,27.3,24.8,30.26,West,277,3.0,10.0,90,0.00,,,0.00,meteohub,2013-03-07 05:06:00,
2013-03-07 00:11:00,27.3,24.8,30.27,WNW,302,4.0,10.0,90,0.00,,,0.00,meteohub,2013-03-07 05:11:00,
2013-03-07 00:16:00,27.1,24.3,30.27,WNW,282,7.0,9.0,89,0.00,,,0.00,meteohub,2013-03-07 05:16:00,
2013-03-07 00:21:00,27.1,24.3,30.27,WNW,294,3.0,10.0,89,0.00,,,0.00,meteohub,2013-03-07 05:21:00,
2013-03-07 00:26:00,27.1,24.1,30.27,WNW,296,2.0,10.0,88,0.00,,,0.00,meteohub,2013-03-07 05:26:00,
2013-03-07 00:31:00,27.1,24.1,30.27,WNW,283,3.0,8.0,88,0.00,,,0.00,meteohub,2013-03-07 05:31:00,
2013-03-07 00:36:00,27.1,24.3,30.27,West,276,2.0,8.0,89,0.00,,,0.00,meteohub,2013-03-07 05:36:00,
2013-03-07 00:41:00,27.1,24.1,30.27,NW,313,2.0,7.0,88,0.00,,,0.00,meteohub,2013-03-07 05:41:00,
2013-03-07 00:46:00,27.1,24.1,30.27,NNW,346,5.0,6.0,88,0.00,,,0.00,meteohub,2013-03-07 05:46:00,
2013-03-07 00:51:00,27.1,24.1,30.27,North,358,3.0,9.0,88,0.00,,,0.00,meteohub,2013-03-07 05:51:00,
2013-03-07 00:56:00,27.1,24.1,30.27,WNW,294,3.0,9.0,88,0.00,,,0.00,meteohub,2013-03-07 05:56:00,
2013-03-07 01:01:00,27.1,24.3,30.27,WNW,297,2.0,9.0,89,0.00,,,0.00,meteohub,2013-03-07 06:01:00,
2013-03-07 01:06:00,27.0,24.1,30.27,WNW,283,5.0,6.0,89,0.00,,,0.00,meteohub,2013-03-07 06:06:00,
2013-03-07 01:11:00,27.0,24.1,30.27,NNE,13,1.0,9.0,89,0.00,,,0.00,meteohub,2013-03-07 06:11:00,
2013-03-07 01:16:00,27.0,24.1,30.27,WNW,294,2.0,9.0,89,0.00,,,0.00,meteohub,2013-03-07 06:16:00,
2013-03-07 01:21:00,26.8,23.9,30.28,WNW,296,6.0,9.0,89,0.00,,,0.00,meteohub,2013-03-07 06:21:00,
2013-03-07 01:26:00,26.6,23.7,30.28,West,280,5.0,10.0,89,0.00,,,0.00,meteohub,2013-03-07 06:26:00,
2013-03-07 01:31:00,26.4,23.4,30.28,NNE,13,7.0,13.0,88,0.00,,,0.00,meteohub,2013-03-07 06:31:00,
2013-03-07 01:36:00,26.2,23.2,30.29,WNW,283,4.0,13.0,88,0.00,,,0.00,meteohub,2013-03-07 06:36:00,
2013-03-07 01:41:00,26.1,23.0,30.28,WSW,251,5.0,13.0,88,0.00,,,0.00,meteohub,2013-03-07 06:41:00,
2013-03-07 01:46:00,25.9,22.8,30.29,West,269,3.0,12.0,88,0.00,,,0.00,meteohub,2013-03-07 06:46:00,
2013-03-07 01:51:00,25.5,22.8,30.29,WNW,302,5.0,12.0,89,0.00,,,0.00,meteohub,2013-03-07 06:51:00,
2013-03-07 01:56:00,25.3,22.6,30.29,West,280,3.0,10.0,89,0.00,,,0.00,meteohub,2013-03-07 06:56:00,
2013-03-07 02:01:00,25.2,22.5,30.29,WNW,290,4.0,10.0,89,0.00,,,0.00,meteohub,2013-03-07 07:01:00,
2013-03-07 02:06:00,25.2,22.5,30.29,North,356,2.0,10.0,89,0.00,,,0.00,meteohub,2013-03-07 07:06:00,
2013-03-07 02:11:00,25.2,22.1,30.29,NNW,327,2.0,9.0,88,0.00,,,0.00,meteohub,2013-03-07 07:11:00,
2013-03-07 02:16:00,25.2,21.9,30.29,West,266,5.0,9.0,87,0.00,,,0.00,meteohub,2013-03-07 07:16:00,
2013-03-07 02:22:00,25.3,22.1,30.30,West,276,2.0,10.0,87,0.00,,,0.00,meteohub,2013-03-07 07:22:00,
2013-03-07 02:27:00,25.3,22.1,30.30,NNE,19,5.0,10.0,87,0.00,,,0.00,meteohub,2013-03-07 07:27:00,
2013-03-07 02:32:00,25.2,22.1,30.30,WNW,287,3.0,11.0,88,0.00,,,0.00,meteohub,2013-03-07 07:32:00,
2013-03-07 02:37:00,25.2,21.9,30.30,NW,305,2.0,15.0,87,0.00,,,0.00,meteohub,2013-03-07 07:37:00,
2013-03-07 02:42:00,25.2,21.9,30.30,NW,313,4.0,15.0,87,0.00,,,0.00,meteohub,2013-03-07 07:42:00,
2013-03-07 02:47:00,25.2,21.9,30.30,West,276,5.0,15.0,87,0.00,,,0.00,meteohub,2013-03-07 07:47:00,
2013-03-07 02:52:00,25.2,21.9,30.30,North,349,2.0,11.0,87,0.00,,,0.00,meteohub,2013-03-07 07:52:00,
2013-03-07 02:57:00,25.2,21.9,30.30,West,280,4.0,9.0,87,0.00,,,0.00,meteohub,2013-03-07 07:57:00,
2013-03-07 03:02:00,25.2,21.9,30.30,West,272,5.0,9.0,87,0.00,,,0.00,meteohub,2013-03-07 08:02:00,
2013-03-07 03:07:00,25.2,21.9,30.30,WNW,285,2.0,9.0,87,0.00,,,0.00,meteohub,2013-03-07 08:07:00,
2013-03-07 03:12:00,25.2,21.9,30.30,West,281,2.0,8.0,87,0.00,,,0.00,meteohub,2013-03-07 08:12:00,
2013-03-07 03:17:00,25.2,21.9,30.30,NNW,340,2.0,8.0,87,0.00,,,0.00,meteohub,2013-03-07 08:17:00,
2013-03-07 03:22:00,25.2,21.9,30.30,NNW,333,0.0,6.0,87,0.00,,,0.00,meteohub,2013-03-07 08:22:00,
2013-03-07 03:27:00,25.2,21.9,30.30,WSW,248,0.0,6.0,87,0.00,,,0.00,meteohub,2013-03-07 08:27:00,
2013-03-07 03:32:00,25.2,21.9,30.30,North,358,1.0,5.0,87,0.00,,,0.00,meteohub,2013-03-07 08:32:00,
2013-03-07 03:37:00,25.2,21.9,30.30,WNW,285,1.0,5.0,87,0.00,,,0.00,meteohub,2013-03-07 08:37:00,
2013-03-07 03:42:00,25.2,21.9,30.30,NNE,24,4.0,5.0,87,0.00,,,0.00,meteohub,2013-03-07 08:42:00,
2013-03-07 03:47:00,25.2,21.9,30.30,NNE,16,2.0,5.0,87,0.00,,,0.00,meteohub,2013-03-07 08:47:00,
2013-03-07 03:52:00,25.2,21.9,30.30,NW,320,2.0,6.0,87,0.00,,,0.00,meteohub,2013-03-07 08:52:00,
2013-03-07 03:57:00,25.2,21.9,30.30,NW,307,2.0,6.0,87,0.00,,,0.00,meteohub,2013-03-07 08:57:00,
2013-03-07 04:02:00,25.2,21.9,30.30,WNW,290,1.0,6.0,87,0.00,,,0.00,meteohub,2013-03-07 09:02:00,
2013-03-07 04:07:00,25.2,21.9,30.30,West,275,2.0,5.0,87,0.00,,,0.00,meteohub,2013-03-07 09:07:00,
2013-03-07 04:12:00,25.2,21.9,30.30,North,1,1.0,5.0,87,0.00,,,0.00,meteohub,2013-03-07 09:12:00,
2013-03-07 04:17:00,25.2,21.9,30.30,WNW,283,1.0,6.0,87,0.00,,,0.00,meteohub,2013-03-07 09:17:00,
2013-03-07 04:22:00,25.2,21.9,30.30,NW,317,3.0,6.0,87,0.00,,,0.00,meteohub,2013-03-07 09:22:00,
2013-03-07 04:27:00,25.2,21.9,30.30,NW,312,6.0,7.0,87,0.00,,,0.00,meteohub,2013-03-07 09:27:00,
2013-03-07 04:32:00,25.2,21.6,30.30,NW,323,1.0,7.0,86,0.00,,,0.00,meteohub,2013-03-07 09:32:00,
2013-03-07 04:37:00,25.2,21.6,30.30,West,281,2.0,7.0,86,0.00,,,0.00,meteohub,2013-03-07 09:37:00,
2013-03-07 04:42:00,25.2,21.6,30.30,WNW,298,4.0,7.0,86,0.00,,,0.00,meteohub,2013-03-07 09:42:00,
2013-03-07 04:47:00,25.2,21.6,30.31,NNW,333,2.0,7.0,86,0.00,,,0.00,meteohub,2013-03-07 09:47:00,
2013-03-07 04:52:00,25.2,21.6,30.31,NW,317,1.0,7.0,86,0.00,,,0.00,meteohub,2013-03-07 09:52:00,
2013-03-07 04:57:00,25.2,21.9,30.31,NNE,22,1.0,6.0,87,0.00,,,0.00,meteohub,2013-03-07 09:57:00,
2013-03-07 05:02:00,25.2,21.9,30.31,WSW,245,1.0,5.0,87,0.00,,,0.00,meteohub,2013-03-07 10:02:00,
2013-03-07 05:07:00,25.2,21.9,30.31,NNW,332,0.0,5.0,87,0.00,,,0.00,meteohub,2013-03-07 10:07:00,
2013-03-07 05:12:00,25.2,21.6,30.31,WNW,294,0.0,4.0,86,0.00,,,0.00,meteohub,2013-03-07 10:12:00,
2013-03-07 05:17:00,25.2,21.4,30.31,WNW,290,1.0,5.0,85,0.00,,,0.00,meteohub,2013-03-07 10:17:00,
2013-03-07 05:22:00,25.2,21.4,30.31,NNW,335,3.0,5.0,85,0.00,,,0.00,meteohub,2013-03-07 10:22:00,
2013-03-07 05:27:00,25.0,20.8,30.31,WNW,292,4.0,6.0,84,0.00,,,0.00,meteohub,2013-03-07 10:27:00,
2013-03-07 05:32:00,24.8,20.7,30.31,WNW,293,0.0,6.0,84,0.00,,,0.00,meteohub,2013-03-07 10:32:00,
2013-03-07 05:37:00,24.6,20.8,30.31,WNW,300,4.0,6.0,85,0.00,,,0.00,meteohub,2013-03-07 10:37:00,
2013-03-07 05:42:00,24.6,20.8,30.31,West,270,0.0,6.0,85,0.00,,,0.00,meteohub,2013-03-07 10:42:00,
2013-03-07 05:47:00,24.6,20.5,30.31,NW,313,1.0,4.0,84,0.00,,,0.00,meteohub,2013-03-07 10:47:00,
2013-03-07 05:53:00,24.6,20.8,30.31,WNW,285,0.0,4.0,85,0.00,,,0.00,meteohub,2013-03-07 10:53:00,
2013-03-07 05:58:00,24.6,20.5,30.32,West,276,0.0,4.0,84,0.00,,,0.00,meteohub,2013-03-07 10:58:00,
2013-03-07 06:03:00,24.6,20.5,30.32,WNW,285,0.0,4.0,84,0.00,,,0.00,meteohub,2013-03-07 11:03:00,
2013-03-07 06:08:00,24.6,20.5,30.32,WNW,283,1.0,2.0,84,0.00,,,0.00,meteohub,2013-03-07 11:08:00,
2013-03-07 06:13:00,24.6,20.5,30.32,West,273,1.0,2.0,84,0.00,,,0.00,meteohub,2013-03-07 11:13:00,
2013-03-07 06:18:00,24.6,20.5,30.32,NW,304,2.0,2.0,84,0.00,,,0.00,meteohub,2013-03-07 11:18:00,
2013-03-07 06:23:00,24.6,20.5,30.32,West,266,3.0,3.0,84,0.00,,,0.00,meteohub,2013-03-07 11:23:00,
2013-03-07 06:28:00,24.8,20.7,30.32,NW,323,1.0,4.0,84,0.00,,,0.00,meteohub,2013-03-07 11:28:00,
2013-03-07 06:33:00,24.6,20.5,30.32,NW,321,1.0,4.0,84,0.00,,,0.00,meteohub,2013-03-07 11:33:00,
2013-03-07 06:38:00,24.6,20.5,30.32,West,262,0.0,4.0,84,0.00,,,0.00,meteohub,2013-03-07 11:38:00,
2013-03-07 06:43:00,24.6,20.5,30.32,NNW,348,1.0,3.0,84,0.00,,,0.00,meteohub,2013-03-07 11:43:00,
2013-03-07 06:48:00,24.6,20.5,30.32,West,271,1.0,3.0,84,0.00,,,0.00,meteohub,2013-03-07 11:48:00,
2013-03-07 06:53:00,24.6,20.5,30.33,North,356,2.0,3.0,84,0.00,,,0.00,meteohub,2013-03-07 11:53:00,
2013-03-07 06:58:00,24.8,20.7,30.33,WSW,241,1.0,2.0,84,0.00,,,0.00,meteohub,2013-03-07 11:58:00,
2013-03-07 07:03:00,24.6,20.5,30.33,NNE,15,1.0,3.0,84,0.00,,,0.00,meteohub,2013-03-07 12:03:00,
2013-03-07 07:08:00,24.8,20.3,30.33,NNW,329,2.0,4.0,83,0.00,,,0.00,meteohub,2013-03-07 12:08:00,
2013-03-07 07:13:00,24.8,20.3,30.34,West,276,1.0,6.0,83,0.00,,,0.00,meteohub,2013-03-07 12:13:00,
2013-03-07 07:18:00,24.8,20.7,30.34,WNW,285,1.0,6.0,84,0.00,,,0.00,meteohub,2013-03-07 12:18:00,
2013-03-07 07:23:00,24.8,20.7,30.34,NW,306,2.0,6.0,84,0.00,,,0.00,meteohub,2013-03-07 12:23:00,
2013-03-07 07:28:00,24.8,20.7,30.34,WNW,283,0.0,3.0,84,0.00,,,0.00,meteohub,2013-03-07 12:28:00,
2013-03-07 07:33:00,25.0,20.5,30.34,WNW,295,1.0,3.0,83,0.00,,,0.00,meteohub,2013-03-07 12:33:00,
2013-03-07 07:38:00,25.0,20.5,30.34,West,281,2.0,4.0,83,0.00,,,0.00,meteohub,2013-03-07 12:38:00,
2013-03-07 07:43:00,25.0,20.5,30.35,WNW,297,0.0,4.0,83,0.00,,,0.00,meteohub,2013-03-07 12:43:00,
2013-03-07 07:48:00,25.2,20.7,30.35,NW,311,3.0,4.0,83,0.00,,,0.00,meteohub,2013-03-07 12:48:00,
2013-03-07 07:54:00,25.0,20.5,30.35,WNW,288,2.0,4.0,83,0.00,,,0.00,meteohub,2013-03-07 12:54:00,
2013-03-07 07:59:00,25.2,20.7,30.35,NW,325,1.0,4.0,83,0.00,,,0.00,meteohub,2013-03-07 12:59:00,
2013-03-07 08:04:00,25.2,20.1,30.35,West,271,0.0,4.0,81,0.00,,,0.00,meteohub,2013-03-07 13:04:00,
2013-03-07 08:09:00,25.3,20.3,30.35,North,358,3.0,3.0,81,0.00,,,0.00,meteohub,2013-03-07 13:09:00,
2013-03-07 08:14:00,25.3,19.4,30.35,West,261,3.0,3.0,78,0.00,,,0.00,meteohub,2013-03-07 13:14:00,
2013-03-07 08:19:00,25.3,19.4,30.36,WNW,298,3.0,11.0,78,0.00,,,0.00,meteohub,2013-03-07 13:19:00,
2013-03-07 08:24:00,25.3,19.4,30.36,North,2,9.0,11.0,78,0.00,,,0.00,meteohub,2013-03-07 13:24:00,
2013-03-07 08:29:00,25.3,19.4,30.36,NNW,343,2.0,11.0,78,0.00,,,0.00,meteohub,2013-03-07 13:29:00,
2013-03-07 08:34:00,25.3,19.4,30.36,WNW,297,3.0,9.0,78,0.00,,,0.00,meteohub,2013-03-07 13:34:00,
2013-03-07 08:39:00,25.3,19.2,30.36,NW,309,3.0,9.0,77,0.00,,,0.00,meteohub,2013-03-07 13:39:00,
2013-03-07 08:44:00,25.3,19.4,30.37,WSW,241,2.0,7.0,78,0.00,,,0.00,meteohub,2013-03-07 13:44:00,
2013-03-07 08:49:00,25.3,19.2,30.37,NNW,330,2.0,7.0,77,0.00,,,0.00,meteohub,2013-03-07 13:49:00,
2013-03-07 08:54:00,25.3,18.9,30.37,NW,322,6.0,7.0,76,0.00,,,0.00,meteohub,2013-03-07 13:54:00,
2013-03-07 08:59:00,25.5,19.4,30.37,WNW,299,2.0,7.0,77,0.00,,,0.00,meteohub,2013-03-07 13:59:00,
2013-03-07 09:05:00,25.5,19.0,30.37,WNW,287,5.0,8.0,76,0.00,,,0.00,meteohub,2013-03-07 14:05:00,
2013-03-07 09:10:00,25.5,19.0,30.37,SSW,207,2.0,8.0,76,0.00,,,0.00,meteohub,2013-03-07 14:10:00,
2013-03-07 09:15:00,25.3,18.9,30.37,WNW,293,3.0,7.0,76,0.00,,,0.00,meteohub,2013-03-07 14:15:00,
2013-03-07 09:20:00,25.5,19.0,30.38,WSW,246,1.0,8.0,76,0.00,,,0.00,meteohub,2013-03-07 14:20:00,
2013-03-07 09:25:00,25.5,19.0,30.38,WNW,285,5.0,8.0,76,0.00,,,0.00,meteohub,2013-03-07 14:25:00,
2013-03-07 09:30:00,25.5,19.4,30.38,WSW,252,7.0,8.0,77,0.00,,,0.00,meteohub,2013-03-07 14:30:00,
2013-03-07 09:35:00,25.5,19.6,30.38,NNE,33,6.0,9.0,78,0.00,,,0.00,meteohub,2013-03-07 14:35:00,
2013-03-07 09:40:00,25.3,19.4,30.38,West,280,1.0,10.0,78,0.00,,,0.00,meteohub,2013-03-07 14:40:00,
2013-03-07 09:45:00,25.5,19.6,30.38,North,358,2.0,10.0,78,0.00,,,0.00,meteohub,2013-03-07 14:45:00,
2013-03-07 09:50:00,25.5,19.6,30.37,WNW,285,2.0,10.0,78,0.00,,,0.00,meteohub,2013-03-07 14:50:00,
2013-03-07 09:55:00,25.5,19.4,30.38,WNW,294,4.0,8.0,77,0.00,,,0.00,meteohub,2013-03-07 14:55:00,
2013-03-07 10:00:00,25.5,19.0,30.38,NW,326,5.0,8.0,76,0.00,,,0.00,meteohub,2013-03-07 15:00:00,
2013-03-07 10:05:00,25.5,19.0,30.38,NNE,17,3.0,9.0,76,0.00,,,0.00,meteohub,2013-03-07 15:05:00,
2013-03-07 10:10:00,25.7,19.6,30.38,SW,226,2.0,9.0,77,0.00,,,0.00,meteohub,2013-03-07 15:10:00,
2013-03-07 10:15:00,25.7,19.2,30.38,WNW,300,6.0,11.0,76,0.00,,,0.00,meteohub,2013-03-07 15:15:00,
2013-03-07 10:20:00,25.7,19.2,30.38,NNW,345,7.0,11.0,76,0.00,,,0.00,meteohub,2013-03-07 15:20:00,
2013-03-07 10:25:00,25.7,18.9,30.38,North,356,6.0,11.0,75,0.00,,,0.00,meteohub,2013-03-07 15:25:00,
2013-03-07 10:30:00,25.9,19.4,30.38,NNE,32,0.0,9.0,76,0.00,,,0.00,meteohub,2013-03-07 15:30:00,
2013-03-07 10:36:00,25.9,19.0,30.39,WNW,294,5.0,9.0,75,0.00,,,0.00,meteohub,2013-03-07 15:36:00,
2013-03-07 10:41:00,25.9,18.7,30.39,NW,307,5.0,8.0,74,0.00,,,0.00,meteohub,2013-03-07 15:41:00,
2013-03-07 10:46:00,25.9,18.7,30.38,NW,317,6.0,10.0,74,0.00,,,0.00,meteohub,2013-03-07 15:46:00,
2013-03-07 10:51:00,25.9,18.7,30.39,WNW,299,4.0,10.0,74,0.00,,,0.00,meteohub,2013-03-07 15:51:00,
2013-03-07 10:56:00,25.9,18.5,30.39,North,356,8.0,9.0,73,0.00,,,0.00,meteohub,2013-03-07 15:56:00,
2013-03-07 11:01:00,26.1,18.3,30.39,West,280,2.0,11.0,72,0.00,,,0.00,meteohub,2013-03-07 16:01:00,
2013-03-07 11:06:00,26.2,18.5,30.39,WNW,293,3.0,11.0,72,0.00,,,0.00,meteohub,2013-03-07 16:06:00,
2013-03-07 11:11:00,26.2,18.5,30.39,West,262,7.0,11.0,72,0.00,,,0.00,meteohub,2013-03-07 16:11:00,
2013-03-07 11:16:00,26.2,18.9,30.39,West,268,0.0,9.0,73,0.00,,,0.00,meteohub,2013-03-07 16:16:00,
2013-03-07 11:21:00,26.8,19.0,30.39,WNW,302,3.0,8.0,72,0.00,,,0.00,meteohub,2013-03-07 16:21:00,
2013-03-07 11:26:00,26.6,18.9,30.39,WSW,240,1.0,8.0,72,0.00,,,0.00,meteohub,2013-03-07 16:26:00,
2013-03-07 11:31:00,27.0,19.2,30.39,WNW,293,2.0,10.0,72,0.00,,,0.00,meteohub,2013-03-07 16:31:00,
2013-03-07 11:36:00,26.6,18.9,30.39,West,264,5.0,10.0,72,0.00,,,0.00,meteohub,2013-03-07 16:36:00,
2013-03-07 11:41:00,26.6,18.5,30.39,West,272,6.0,9.0,71,0.00,,,0.00,meteohub,2013-03-07 16:41:00,
2013-03-07 11:46:00,26.4,18.3,30.39,North,352,2.0,10.0,71,0.00,,,0.00,meteohub,2013-03-07 16:46:00,
2013-03-07 11:51:00,26.8,19.0,30.39,WSW,244,0.0,10.0,72,0.00,,,0.00,meteohub,2013-03-07 16:51:00,
2013-03-07 11:56:00,27.0,19.2,30.39,North,353,6.0,10.0,72,0.00,,,0.00,meteohub,2013-03-07 16:56:00,
2013-03-07 12:01:00,27.1,19.0,30.39,North,349,5.0,7.0,71,0.00,,,0.00,meteohub,2013-03-07 17:01:00,
2013-03-07 12:06:00,27.1,18.7,30.39,WNW,289,7.0,8.0,70,0.00,,,0.00,meteohub,2013-03-07 17:06:00,
2013-03-07 12:11:00,27.3,18.9,30.39,WSW,244,4.0,8.0,70,0.00,,,0.00,meteohub,2013-03-07 17:11:00,
2013-03-07 12:16:00,27.3,18.9,30.39,South,184,1.0,8.0,70,0.00,,,0.00,meteohub,2013-03-07 17:16:00,
2013-03-07 12:21:00,27.5,19.0,30.39,West,271,4.0,7.0,70,0.00,,,0.00,meteohub,2013-03-07 17:21:00,
2013-03-07 12:26:00,27.7,18.9,30.39,NNW,330,0.0,7.0,69,0.00,,,0.00,meteohub,2013-03-07 17:26:00,
2013-03-07 12:32:00,28.0,19.2,30.38,WNW,285,1.0,7.0,69,0.00,,,0.00,meteohub,2013-03-07 17:32:00,
2013-03-07 12:37:00,28.0,19.2,30.38,NNE,29,3.0,7.0,69,0.00,,,0.00,meteohub,2013-03-07 17:37:00,
2013-03-07 12:42:00,27.9,19.4,30.38,WNW,295,6.0,7.0,70,0.00,,,0.00,meteohub,2013-03-07 17:42:00,
2013-03-07 12:47:00,28.0,20.1,30.39,North,350,5.0,9.0,72,0.00,,,0.00,meteohub,2013-03-07 17:47:00,
2013-03-07 12:52:00,27.9,19.8,30.39,NW,323,1.0,9.0,71,0.00,,,0.00,meteohub,2013-03-07 17:52:00,
2013-03-07 12:57:00,27.7,19.8,30.38,West,280,3.0,9.0,72,0.00,,,0.00,meteohub,2013-03-07 17:57:00,
2013-03-07 13:02:00,28.0,20.1,30.38,West,280,3.0,9.0,72,0.00,,,0.00,meteohub,2013-03-07 18:02:00,
2013-03-07 13:07:00,28.0,19.9,30.39,West,265,1.0,8.0,71,0.00,,,0.00,meteohub,2013-03-07 18:07:00,
2013-03-07 13:12:00,28.0,19.9,30.38,West,262,5.0,7.0,71,0.00,,,0.00,meteohub,2013-03-07 18:12:00,
2013-03-07 13:17:00,28.2,20.3,30.38,WSW,250,3.0,7.0,72,0.00,,,0.00,meteohub,2013-03-07 18:17:00,
2013-03-07 13:22:00,28.2,19.8,30.38,NW,321,5.0,7.0,70,0.00,,,0.00,meteohub,2013-03-07 18:22:00,
2013-03-07 13:27:00,28.2,19.8,30.38,NW,318,3.0,7.0,70,0.00,,,0.00,meteohub,2013-03-07 18:27:00,
2013-03-07 13:32:00,28.6,20.1,30.38,SW,223,1.0,7.0,70,0.00,,,0.00,meteohub,2013-03-07 18:32:00,
2013-03-07 13:37:00,28.6,20.3,30.38,WSW,252,3.0,7.0,71,0.00,,,0.00,meteohub,2013-03-07 18:37:00,
2013-03-07 13:42:00,28.6,20.3,30.38,SW,216,1.0,8.0,71,0.00,,,0.00,meteohub,2013-03-07 18:42:00,
2013-03-07 13:47:00,28.8,20.3,30.38,WNW,285,7.0,8.0,70,0.00,,,0.00,meteohub,2013-03-07 18:47:00,
2013-03-07 13:52:00,28.6,20.1,30.39,SW,231,3.0,8.0,70,0.00,,,0.00,meteohub,2013-03-07 18:52:00,
2013-03-07 13:57:00,28.6,20.1,30.39,West,278,4.0,7.0,70,0.00,,,0.00,meteohub,2013-03-07 18:57:00,
2013-03-07 14:02:00,28.6,20.1,30.39,West,280,3.0,7.0,70,0.00,,,0.00,meteohub,2013-03-07 19:02:00,
2013-03-07 14:07:00,28.4,19.9,30.39,WNW,289,3.0,7.0,70,0.00,,,0.00,meteohub,2013-03-07 19:07:00,
2013-03-07 14:12:00,28.2,19.8,30.39,NW,322,4.0,7.0,70,0.00,,,0.00,meteohub,2013-03-07 19:12:00,
2013-03-07 14:17:00,28.6,20.3,30.39,WNW,289,5.0,7.0,71,0.00,,,0.00,meteohub,2013-03-07 19:17:00,
2013-03-07 14:22:00,28.6,20.7,30.39,West,259,3.0,7.0,72,0.00,,,0.00,meteohub,2013-03-07 19:22:00,
2013-03-07 14:28:00,28.9,20.5,30.38,WNW,290,3.0,8.0,70,0.00,,,0.00,meteohub,2013-03-07 19:28:00,
2013-03-07 14:33:00,29.1,20.5,30.38,WNW,298,4.0,8.0,70,0.00,,,0.00,meteohub,2013-03-07 19:33:00,
2013-03-07 14:38:00,28.9,20.5,30.39,WNW,282,3.0,5.0,70,0.00,,,0.00,meteohub,2013-03-07 19:38:00,
2013-03-07 14:43:00,28.6,20.1,30.39,West,280,3.0,7.0,70,0.00,,,0.00,meteohub,2013-03-07 19:43:00,
2013-03-07 14:48:00,28.9,20.7,30.39,West,271,3.0,7.0,71,0.00,,,0.00,meteohub,2013-03-07 19:48:00,
2013-03-07 14:53:00,28.6,20.1,30.39,WNW,283,3.0,7.0,70,0.00,,,0.00,meteohub,2013-03-07 19:53:00,
2013-03-07 14:58:00,28.6,20.3,30.39,North,6,5.0,9.0,71,0.00,,,0.00,meteohub,2013-03-07 19:58:00,
2013-03-07 15:04:00,28.6,20.3,30.39,WSW,255,4.0,9.0,71,0.00,,,0.00,meteohub,2013-03-07 20:04:00,
2013-03-07 15:09:00,28.4,20.1,30.39,WSW,257,2.0,8.0,71,0.00,,,0.00,meteohub,2013-03-07 20:09:00,
2013-03-07 15:14:00,28.2,20.3,30.40,NW,308,3.0,8.0,72,0.00,,,0.00,meteohub,2013-03-07 20:14:00,
2013-03-07 15:19:00,28.2,20.1,30.40,WNW,293,5.0,10.0,71,0.00,,,0.00,meteohub,2013-03-07 20:19:00,
2013-03-07 15:24:00,28.2,20.3,30.40,WNW,283,1.0,10.0,72,0.00,,,0.00,meteohub,2013-03-07 20:24:00,
2013-03-07 15:29:00,28.2,20.3,30.40,WNW,290,5.0,10.0,72,0.00,,,0.00,meteohub,2013-03-07 20:29:00,
2013-03-07 15:34:00,28.4,20.8,30.40,West,280,3.0,10.0,73,0.00,,,0.00,meteohub,2013-03-07 20:34:00,
2013-03-07 15:39:00,28.8,20.8,30.40,WNW,283,2.0,10.0,72,0.00,,,0.00,meteohub,2013-03-07 20:39:00,
2013-03-07 15:44:00,28.8,20.3,30.40,West,276,3.0,10.0,70,0.00,,,0.00,meteohub,2013-03-07 20:44:00,
2013-03-07 15:49:00,28.6,20.3,30.40,SW,223,2.0,7.0,71,0.00,,,0.00,meteohub,2013-03-07 20:49:00,
2013-03-07 15:54:00,28.6,20.3,30.40,NW,317,3.0,6.0,71,0.00,,,0.00,meteohub,2013-03-07 20:54:00,
2013-03-07 15:59:00,28.6,20.1,30.40,West,266,4.0,7.0,70,0.00,,,0.00,meteohub,2013-03-07 20:59:00,
2013-03-07 16:04:00,28.6,20.3,30.40,WSW,247,5.0,9.0,71,0.00,,,0.00,meteohub,2013-03-07 21:04:00,
2013-03-07 16:09:00,28.2,20.1,30.40,West,262,6.0,9.0,71,0.00,,,0.00,meteohub,2013-03-07 21:09:00,
2013-03-07 16:14:00,28.2,20.1,30.40,SW,228,2.0,9.0,71,0.00,,,0.00,meteohub,2013-03-07 21:14:00,
2013-03-07 16:19:00,28.6,20.7,30.40,WNW,292,3.0,8.0,72,0.00,,,0.00,meteohub,2013-03-07 21:19:00,
2013-03-07 16:24:00,28.6,20.3,30.40,WNW,287,4.0,8.0,71,0.00,,,0.00,meteohub,2013-03-07 21:24:00,
2013-03-07 16:29:00,28.6,20.7,30.40,SW,231,3.0,8.0,72,0.00,,,0.00,meteohub,2013-03-07 21:29:00,
2013-03-07 16:34:00,28.6,20.3,30.40,WNW,285,2.0,6.0,71,0.00,,,0.00,meteohub,2013-03-07 21:34:00,
2013-03-07 16:39:00,28.6,20.3,30.40,NW,306,2.0,6.0,71,0.00,,,0.00,meteohub,2013-03-07 21:39:00,
2013-03-07 16:44:00,28.4,20.1,30.40,West,271,2.0,5.0,71,0.00,,,0.00,meteohub,2013-03-07 21:44:00,
2013-03-07 16:49:00,28.6,20.3,30.40,WNW,299,4.0,6.0,71,0.00,,,0.00,meteohub,2013-03-07 21:49:00,
2013-03-07 16:54:00,28.2,20.1,30.41,WNW,299,5.0,6.0,71,0.00,,,0.00,meteohub,2013-03-07 21:54:00,
2013-03-07 16:59:00,28.2,20.1,30.41,WNW,297,3.0,7.0,71,0.00,,,0.00,meteohub,2013-03-07 21:59:00,
2013-03-07 17:04:00,28.2,20.1,30.41,SE,145,1.0,7.0,71,0.00,,,0.00,meteohub,2013-03-07 22:04:00,
2013-03-07 17:09:00,28.2,20.7,30.41,WSW,242,0.0,7.0,73,0.00,,,0.00,meteohub,2013-03-07 22:09:00,
2013-03-07 17:14:00,28.2,20.1,30.41,West,279,2.0,6.0,71,0.00,,,0.00,meteohub,2013-03-07 22:14:00,
2013-03-07 17:19:00,28.0,20.1,30.41,WSW,240,3.0,5.0,72,0.00,,,0.00,meteohub,2013-03-07 22:19:00,
2013-03-07 17:24:00,28.0,19.9,30.41,WSW,255,2.0,5.0,71,0.00,,,0.00,meteohub,2013-03-07 22:24:00,
2013-03-07 17:29:00,28.0,20.1,30.41,SW,234,2.0,6.0,72,0.00,,,0.00,meteohub,2013-03-07 22:29:00,
2013-03-07 17:34:00,28.0,20.1,30.41,SW,224,1.0,6.0,72,0.00,,,0.00,meteohub,2013-03-07 22:34:00,
2013-03-07 17:39:00,28.0,19.9,30.41,WNW,297,2.0,6.0,71,0.00,,,0.00,meteohub,2013-03-07 22:39:00,
2013-03-07 17:44:00,28.0,20.1,30.41,NW,325,4.0,5.0,72,0.00,,,0.00,meteohub,2013-03-07 22:44:00,
2013-03-07 17:49:00,27.9,19.9,30.42,SW,228,3.0,5.0,72,0.00,,,0.00,meteohub,2013-03-07 22:49:00,
2013-03-07 17:54:00,27.9,19.9,30.41,WNW,299,2.0,5.0,72,0.00,,,0.00,meteohub,2013-03-07 22:54:00,
2013-03-07 17:59:00,27.9,20.3,30.42,WSW,253,0.0,5.0,73,0.00,,,0.00,meteohub,2013-03-07 22:59:00,
2013-03-07 18:05:00,27.9,19.9,30.42,SW,218,1.0,5.0,72,0.00,,,0.00,meteohub,2013-03-07 23:05:00,
2013-03-07 18:10:00,27.9,20.3,30.43,SW,226,1.0,5.0,73,0.00,,,0.00,meteohub,2013-03-07 23:10:00,
2013-03-07 18:15:00,27.9,20.7,30.43,WSW,241,1.0,5.0,74,0.00,,,0.00,meteohub,2013-03-07 23:15:00,
2013-03-07 18:20:00,27.7,20.1,30.43,WNW,300,4.0,5.0,73,0.00,,,0.00,meteohub,2013-03-07 23:20:00,
2013-03-07 18:25:00,27.7,20.1,30.43,WNW,294,0.0,5.0,73,0.00,,,0.00,meteohub,2013-03-07 23:25:00,
2013-03-07 18:30:00,27.5,19.9,30.43,WNW,300,1.0,4.0,73,0.00,,,0.00,meteohub,2013-03-07 23:30:00,
2013-03-07 18:35:00,27.7,20.5,30.43,NNW,328,1.0,4.0,74,0.00,,,0.00,meteohub,2013-03-07 23:35:00,
2013-03-07 18:40:00,27.5,20.3,30.43,NNE,15,1.0,2.0,74,0.00,,,0.00,meteohub,2013-03-07 23:40:00,
2013-03-07 18:45:00,27.7,20.8,30.43,NNE,19,4.0,4.0,75,0.00,,,0.00,meteohub,2013-03-07 23:45:00,
2013-03-07 18:50:00,27.7,20.8,30.43,WSW,241,1.0,5.0,75,0.00,,,0.00,meteohub,2013-03-07 23:50:00,
2013-03-07 18:55:00,27.9,21.0,30.43,West,265,2.0,5.0,75,0.00,,,0.00,meteohub,2013-03-07 23:55:00,
2013-03-07 19:00:00,27.9,21.2,30.43,WSW,242,0.0,5.0,76,0.00,,,0.00,meteohub,2013-03-08 00:00:00,
2013-03-07 19:05:00,27.7,21.4,30.43,SW,229,0.0,2.0,77,0.00,,,0.00,meteohub,2013-03-08 00:05:00,
2013-03-07 19:10:00,27.7,21.0,30.43,WNW,300,1.0,2.0,76,0.00,,,0.00,meteohub,2013-03-08 00:10:00,
2013-03-07 19:15:00,28.0,21.7,30.44,WSW,252,0.0,2.0,77,0.00,,,0.00,meteohub,2013-03-08 00:15:00,
2013-03-07 19:20:00,28.0,21.2,30.44,WSW,245,0.0,2.0,75,0.00,,,0.00,meteohub,2013-03-08 00:20:00,
2013-03-07 19:25:00,28.0,21.7,30.44,SW,236,0.0,2.0,77,0.00,,,0.00,meteohub,2013-03-08 00:25:00,
2013-03-07 19:30:00,27.9,21.2,30.44,WSW,238,0.0,2.0,76,0.00,,,0.00,meteohub,2013-03-08 00:30:00,
2013-03-07 19:35:00,27.7,21.0,30.44,SW,227,0.0,1.0,76,0.00,,,0.00,meteohub,2013-03-08 00:35:00,
2013-03-07 19:40:00,27.9,21.6,30.44,SSW,209,0.0,1.0,77,0.00,,,0.00,meteohub,2013-03-08 00:40:00,
2013-03-07 19:45:00,27.9,21.6,30.44,SW,228,0.0,1.0,77,0.00,,,0.00,meteohub,2013-03-08 00:45:00,
2013-03-07 19:50:00,27.7,21.4,30.44,WSW,252,1.0,1.0,77,0.00,,,0.00,meteohub,2013-03-08 00:50:00,
2013-03-07 19:55:00,27.9,21.2,30.45,SW,236,0.0,1.0,76,0.00,,,0.00,meteohub,2013-03-08 00:55:00,
2013-03-07 20:00:00,27.7,21.0,30.44,SW,235,1.0,2.0,76,0.00,,,0.00,meteohub,2013-03-08 01:00:00,
2013-03-07 20:06:00,27.7,21.7,30.44,SW,235,0.0,2.0,78,0.00,,,0.00,meteohub,2013-03-08 01:06:00,
2013-03-07 20:11:00,27.7,21.4,30.44,SW,227,0.0,1.0,77,0.00,,,0.00,meteohub,2013-03-08 01:11:00,
2013-03-07 20:16:00,27.7,21.4,30.44,SSW,204,0.0,1.0,77,0.00,,,0.00,meteohub,2013-03-08 01:16:00,
2013-03-07 20:21:00,27.7,21.0,30.45,SW,214,0.0,1.0,76,0.00,,,0.00,meteohub,2013-03-08 01:21:00,
2013-03-07 20:26:00,27.5,21.0,30.45,SW,216,1.0,1.0,76,0.00,,,0.00,meteohub,2013-03-08 01:26:00,
2013-03-07 20:31:00,27.7,21.7,30.45,WSW,252,1.0,1.0,78,0.00,,,0.00,meteohub,2013-03-08 01:31:00,
2013-03-07 20:36:00,27.9,21.6,30.44,WSW,238,0.0,1.0,77,0.00,,,0.00,meteohub,2013-03-08 01:36:00,
2013-03-07 20:41:00,27.7,21.4,30.45,SW,233,0.0,1.0,77,0.00,,,0.00,meteohub,2013-03-08 01:41:00,
2013-03-07 20:46:00,27.3,21.0,30.45,SW,218,0.0,1.0,77,0.00,,,0.00,meteohub,2013-03-08 01:46:00,
2013-03-07 20:51:00,27.3,21.0,30.45,SW,221,0.0,1.0,77,0.00,,,0.00,meteohub,2013-03-08 01:51:00,
2013-03-07 20:56:00,27.5,21.2,30.45,WSW,238,0.0,1.0,77,0.00,,,0.00,meteohub,2013-03-08 01:56:00,
2013-03-07 21:01:00,27.3,21.7,30.45,WSW,238,1.0,1.0,79,0.00,,,0.00,meteohub,2013-03-08 02:01:00,
2013-03-07 21:06:00,27.3,21.4,30.45,WSW,238,0.0,1.0,78,0.00,,,0.00,meteohub,2013-03-08 02:06:00,
2013-03-07 21:11:00,27.3,21.7,30.45,WSW,258,1.0,1.0,79,0.00,,,0.00,meteohub,2013-03-08 02:11:00,
2013-03-07 21:16:00,27.3,21.4,30.45,West,272,1.0,2.0,78,0.00,,,0.00,meteohub,2013-03-08 02:16:00,
2013-03-07 21:21:00,27.3,21.0,30.45,WSW,240,1.0,2.0,77,0.00,,,0.00,meteohub,2013-03-08 02:21:00,
2013-03-07 21:26:00,27.3,21.7,30.45,WSW,241,0.0,2.0,79,0.00,,,0.00,meteohub,2013-03-08 02:26:00,
2013-03-07 21:31:00,27.3,21.4,30.45,WSW,241,0.0,1.0,78,0.00,,,0.00,meteohub,2013-03-08 02:31:00,
2013-03-07 21:36:00,27.1,20.8,30.45,SW,228,1.0,1.0,77,0.00,,,0.00,meteohub,2013-03-08 02:36:00,
2013-03-07 21:41:00,27.1,21.2,30.45,SW,214,0.0,1.0,78,0.00,,,0.00,meteohub,2013-03-08 02:41:00,
2013-03-07 21:46:00,27.1,20.8,30.45,WNW,285,1.0,1.0,77,0.00,,,0.00,meteohub,2013-03-08 02:46:00,
2013-03-07 21:51:00,27.1,21.2,30.45,WNW,283,0.0,2.0,78,0.00,,,0.00,meteohub,2013-03-08 02:51:00,
2013-03-07 21:56:00,27.0,21.0,30.45,WNW,283,0.0,2.0,78,0.00,,,0.00,meteohub,2013-03-08 02:56:00,
2013-03-07 22:01:00,27.0,21.4,30.45,WNW,283,0.0,2.0,79,0.00,,,0.00,meteohub,2013-03-08 03:01:00,
2013-03-07 22:06:00,27.0,21.4,30.45,WNW,283,0.0,0.0,79,0.00,,,0.00,meteohub,2013-03-08 03:06:00,
2013-03-07 22:11:00,26.8,21.4,30.45,West,272,0.0,0.0,80,0.00,,,0.00,meteohub,2013-03-08 03:11:00,
2013-03-07 22:16:00,26.8,21.2,30.45,East,89,1.0,1.0,79,0.00,,,0.00,meteohub,2013-03-08 03:16:00,
2013-03-07 22:21:00,26.8,21.2,30.45,ESE,115,0.0,2.0,79,0.00,,,0.00,meteohub,2013-03-08 03:21:00,
2013-03-07 22:26:00,26.8,21.2,30.45,ESE,113,0.0,2.0,79,0.00,,,0.00,meteohub,2013-03-08 03:26:00,
2013-03-07 22:31:00,26.8,21.4,30.45,WSW,248,0.0,2.0,80,0.00,,,0.00,meteohub,2013-03-08 03:31:00,
2013-03-07 22:36:00,26.8,20.8,30.45,WSW,248,0.0,1.0,78,0.00,,,0.00,meteohub,2013-03-08 03:36:00,
2013-03-07 22:42:00,26.8,21.2,30.45,WSW,247,0.0,1.0,79,0.00,,,0.00,meteohub,2013-03-08 03:42:00,
2013-03-07 22:47:00,26.6,21.6,30.45,WSW,242,0.0,1.0,81,0.00,,,0.00,meteohub,2013-03-08 03:47:00,
2013-03-07 22:52:00,26.4,21.0,30.45,WSW,242,0.0,1.0,80,0.00,,,0.00,meteohub,2013-03-08 03:52:00,
2013-03-07 22:57:00,26.4,20.8,30.45,SW,234,0.0,1.0,79,0.00,,,0.00,meteohub,2013-03-08 03:57:00,
2013-03-07 23:02:00,26.4,21.0,30.45,SW,226,0.0,1.0,80,0.00,,,0.00,meteohub,2013-03-08 04:02:00,
2013-03-07 23:07:00,26.4,21.4,30.45,SSE,168,0.0,1.0,81,0.00,,,0.00,meteohub,2013-03-08 04:07:00,
2013-03-07 23:12:00,26.2,21.6,30.45,SSE,151,0.0,2.0,82,0.00,,,0.00,meteohub,2013-03-08 04:12:00,
2013-03-07 23:17:00,26.1,21.4,30.46,SSE,151,0.0,2.0,82,0.00,,,0.00,meteohub,2013-03-08 04:17:00,
2013-03-07 23:22:00,26.1,21.6,30.45,SSE,151,0.0,2.0,83,0.00,,,0.00,meteohub,2013-03-08 04:22:00,
2013-03-07 23:27:00,25.9,21.4,30.45,SSE,151,0.0,2.0,83,0.00,,,0.00,meteohub,2013-03-08 04:27:00,
2013-03-07 23:32:00,25.9,21.4,30.45,SSE,150,0.0,0.0,83,0.00,,,0.00,meteohub,2013-03-08 04:32:00,
2013-03-07 23:37:00,25.7,21.2,30.45,SSE,151,0.0,0.0,83,0.00,,,0.00,meteohub,2013-03-08 04:37:00,
2013-03-07 23:42:00,25.5,21.0,30.45,SSE,150,0.0,0.0,83,0.00,,,0.00,meteohub,2013-03-08 04:42:00,
2013-03-07 23:47:00,25.3,20.8,30.45,SSE,157,0.0,1.0,83,0.00,,,0.00,meteohub,2013-03-08 04:47:00,
2013-03-07 23:52:00,25.2,21.0,30.45,SSE,157,0.0,1.0,84,0.00,,,0.00,meteohub,2013-03-08 04:52:00,
2013-03-07 23:57:00,24.8,20.7,30.45,SSE,157,0.0,1.0,84,0.00,,,0.00,meteohub,2013-03-08 04:57:00,